FW5647 Weather Reports


Display with metric or nautical units.
time (UTC)temp
F
wind
direction
speed
MPH
gust
MPH
rain 1hr
in
rain 24hr
in
rain mn
in
humidity
%
barometer
mb
20260507114535 41 257 0.0 2.0 0.00 0.00 0.00 76 1012.8
20260507113047 39 274 0.0 1.0 0.00 0.00 0.00 80 1012.7
20260507111538 37 0 0.0 0.0 0.00 0.00 0.00 83 1012.7
20260507110038 35 0 0.0 1.0 0.00 0.00 0.00 86 1012.6
20260507104536 35 0 0.0 0.0 0.00 0.00 0.00 86 1012.3
20260507103033 35 0 0.0 0.0 0.00 0.00 0.00 83 1012.3
20260507101532 36 0 0.0 0.0 0.00 0.00 0.00 82 1012.2
20260507100037 36 0 0.0 0.0 0.00 0.00 0.00 80 1012.1
20260507094544 37 0 0.0 0.0 0.00 0.00 0.00 79 1012.1
20260507093037 38 0 0.0 0.0 0.00 0.00 0.00 79 1012.2
20260507091536 38 0 0.0 0.0 0.00 0.00 0.00 77 1012.4
20260507090036 40 0 0.0 0.0 0.00 0.00 0.00 77 1012.3
20260507084534 41 0 0.0 0.0 0.00 0.00 0.00 75 1012.4
20260507083034 42 0 0.0 1.0 0.00 0.00 0.00 73 1012.5
20260507081545 42 0 0.0 1.0 0.00 0.00 0.00 74 1012.5
20260507080038 42 0 0.0 1.0 0.00 0.00 0.00 73 1012.4
20260507074535 42 0 0.0 1.0 0.00 0.00 0.00 73 1012.5
20260507073035 43 0 0.0 1.0 0.00 0.00 0.00 72 1012.4
20260507071535 42 0 0.0 1.0 0.00 0.00 0.00 72 1012.5
20260507070040 42 0 0.0 1.0 0.00 0.00 0.00 72 1012.5
20260507064542 42 0 0.0 0.0 0.00 0.00 0.00 71 1012.8
20260507063042 42 0 0.0 1.0 0.00 0.00 0.00 73 1012.5
20260507061538 43 0 0.0 0.0 0.00 0.00 0.00 73 1012.7
20260507060040 44 0 0.0 1.0 0.00 0.00 0.00 70 1012.7
20260507054537 44 0 0.0 1.0 0.00 0.00 0.00 68 1012.7
20260507053037 44 0 0.0 1.0 0.00 0.00 0.00 69 1012.8
20260507051535 44 0 0.0 1.0 0.00 0.00 0.00 69 1012.9
20260507050036 44 259 0.0 2.0 0.00 0.00 0.00 68 1012.9
20260507044541 43 0 0.0 1.0 0.00 0.00 0.00 71 1012.9
20260507043038 44 0 0.0 0.0 0.00 0.00 0.00 73 1013.0
20260507041542 44 0 0.0 0.0 0.00 0.00 0.00 69 1013.0
20260507040033 45 0 0.0 0.0 0.00 0.00 0.00 66 1012.9
20260507034542 45 0 0.0 0.0 0.00 0.00 0.00 65 1013.0
20260507033100 45 0 0.0 0.0 0.00 0.00 0.00 68 1013.1
20260507031537 45 0 0.0 1.0 0.00 0.00 0.00 65 1013.0
20260507030033 46 0 0.0 1.0 0.00 0.00 0.00 62 1013.2
20260507024533 46 0 0.0 0.0 0.00 0.00 0.00 60 1013.3
20260507023033 47 0 0.0 1.0 0.00 0.00 0.00 60 1013.3
20260507021531 48 0 0.0 2.0 0.00 0.00 0.00 59 1013.2
20260507020037 48 0 1.0 2.0 0.00 0.00 0.00 56 1013.1
20260507014535 48 237 0.0 1.0 0.00 0.00 0.00 58 1012.9
20260507013038 49 0 0.0 1.0 0.00 0.00 0.00 55 1012.9
20260507011541 49 0 0.0 4.0 0.00 0.00 0.00 56 1012.6
20260507010041 49 0 0.0 2.0 0.00 0.00 0.00 56 1012.9
20260507004531 49 0 1.0 3.0 0.00 0.00 0.00 60 1012.7
20260507003034 49 0 0.0 0.0 0.00 0.00 0.00 61 1012.6
20260507001551 50 0 0.0 1.0 0.00 0.00 0.00 58 1012.3
20260507000032 50 0 0.0 2.0 0.00 0.00 0.00 52 1012.5
20260506234546 51 271 0.0 1.0 0.00 0.00 0.00 50 1012.3
20260506233033 51 233 0.0 6.0 0.00 0.00 0.00 50 1012.2
20260506231537 51 326 1.0 4.0 0.00 0.00 0.00 50 1012.2
20260506230035 52 222 1.0 6.0 0.00 0.00 0.00 50 1012.2
20260506224537 52 269 1.0 5.0 0.00 0.00 0.00 51 1012.3
20260506223034 52 41 2.0 4.0 0.00 0.00 0.00 49 1012.3
20260506221534 52 10 3.0 6.0 0.00 0.00 0.00 49 1012.4
20260506220045 52 300 1.0 4.0 0.00 0.00 0.00 50 1012.3
20260506214535 52 295 3.0 7.0 0.00 0.00 0.00 48 1012.2
20260506213034 52 311 4.0 8.0 0.00 0.00 0.00 48 1012.2
20260506211534 52 318 4.0 9.0 0.00 0.00 0.00 49 1012.1
20260506210032 52 286 2.0 6.0 0.00 0.00 0.00 49 1012.2
20260506204536 52 323 3.0 10.0 0.00 0.00 0.00 49 1012.3
20260506203034 52 276 3.0 9.0 0.00 0.00 0.00 48 1012.3
20260506201534 52 308 3.0 8.0 0.00 0.00 0.00 49 1012.1
20260506200036 52 315 3.0 5.0 0.00 0.00 0.00 49 1012.7
20260506194537 51 285 4.0 9.0 0.00 0.00 0.00 50 1012.5
20260506193032 51 301 6.0 11.0 0.00 0.00 0.00 49 1012.5
20260506191537 51 289 6.0 10.0 0.00 0.00 0.00 50 1012.8
20260506190033 50 10 4.0 11.0 0.00 0.00 0.00 50 1012.9
20260506184538 50 294 5.0 10.0 0.00 0.00 0.00 50 1012.3
20260506183038 50 233 2.0 9.0 0.00 0.00 0.00 52 1012.5
20260506181543 50 249 3.0 8.0 0.00 0.00 0.00 51 1012.4
20260506180033 50 90 4.0 8.0 0.00 0.00 0.00 52 1012.5
20260506174531 50 33 5.0 10.0 0.00 0.01 0.00 52 1012.6
20260506173047 49 311 6.0 12.0 0.00 0.01 0.00 52 1013.1
20260506171535 49 246 6.0 11.0 0.00 0.01 0.00 54 1013.2
20260506170036 49 247 4.0 9.0 0.00 0.01 0.00 52 1013.0
20260506164534 49 359 5.0 8.0 0.00 0.07 0.00 57 1013.0
20260506163040 49 230 5.0 9.0 0.00 0.07 0.00 56 1012.9
20260506161537 49 245 6.0 12.0 0.00 0.07 0.00 57 1012.9
20260506160041 49 227 6.0 12.0 0.00 0.07 0.00 56 1012.7
20260506154540 49 20 6.0 11.0 0.00 0.08 0.00 56 1012.7
20260506153035 49 326 5.0 12.0 0.00 0.08 0.00 52 1012.4
20260506151544 49 295 4.0 12.0 0.00 0.08 0.00 55 1012.4
20260506150043 49 302 7.0 13.0 0.00 0.08 0.00 55 1012.4
20260506144545 49 273 4.0 14.0 0.00 0.08 0.00 59 1012.2
20260506143037 49 292 5.0 13.0 0.00 0.08 0.00 59 1012.0
20260506141536 49 297 3.0 12.0 0.00 0.08 0.00 61 1011.9
20260506140037 49 299 6.0 13.0 0.00 0.08 0.00 64 1011.5
20260506134535 48 308 6.0 11.0 0.00 0.08 0.00 62 1011.4
20260506133041 48 32 3.0 10.0 0.00 0.08 0.00 63 1011.5
20260506131552 48 335 2.0 8.0 0.00 0.08 0.00 63 1011.1
20260506130041 47 289 2.0 6.0 0.00 0.08 0.00 65 1010.9
20260506124536 45 273 4.0 6.0 0.00 0.08 0.00 67 1010.9
20260506123034 45 302 3.0 6.0 0.00 0.08 0.00 67 1010.7
20260506121535 44 272 1.0 5.0 0.00 0.08 0.00 70 1010.6
20260506120041 43 300 3.0 5.0 0.00 0.08 0.00 69 1010.2